Location: Antioch Church
(34.9543°N, 88.5145°W)
Time: 19:46:15
(UTC+00:00)

Meteor 2-13 Rocket - Pass Details

Date: 11 December 2019
Orbit: 937 x 957 km, 82.5° (Epoch: 18 January)

Event Time Altitude Azimuth Distance (km) Brightness Sun altitude
Rises 00:21:47 0° 176° (S) 3,579 7.6 -19.7°
Reaches altitude 10° 00:24:16 10° 173° (S) 2,639 6.9 -20.2°
Maximum altitude 00:30:13 64° 93° (E) 1,032 4.3 -21.4°
Enters shadow 00:34:41 19° 16° (NNE) 2,102 6.0 -22.3°
